This is the latest recevied weather packets stored in our database for station/object KE5VT. If no packets are shown the sender has not sent any weather packets the latest 10 day(s).
| Time | Temp. | Humidity | Pressure | Rain* | Wind** | Luminosity | Snow |
|---|---|---|---|---|---|---|---|
| 1787441589 | 26.11° C | 85% | 1009.9 hPa | 0 mm | - | 14 W/m² | - |
| 1787441284 | 26.11° C | 85% | 1009.9 hPa | 0 mm | - | 5 W/m² | - |
| 1787440980 | 26.11° C | 85% | 1009.8 hPa | 0 mm | - | 6 W/m² | - |
| 1787440676 | 26.11° C | 84% | 1009.8 hPa | 0 mm | - | 7 W/m² | - |
| 1787440371 | 26.11° C | 83% | 1009.8 hPa | 0 mm | - | 10 W/m² | - |
| 1787440068 | 26.67° C | 82% | 1009.9 hPa | 0 mm | - | 13 W/m² | - |
| 1787439763 | 26.67° C | 81% | 1009.9 hPa | 0 mm | - | 20 W/m² | - |
| 1787439459 | 26.67° C | 81% | 1009.7 hPa | 0 mm | - | 37 W/m² | - |
| 1787439155 | 26.67° C | 80% | 1010 hPa | 0 mm | - | 43 W/m² | - |
| 1787438851 | 27.22° C | 79% | 1009.8 hPa | 0 mm | - | 49 W/m² | - |
| 1787438549 | 27.22° C | 78% | 1010.1 hPa | 0 mm | - | 91 W/m² | - |
| 1787438245 | 27.22° C | 79% | 1010 hPa | 0 mm | - | 125 W/m² | - |
| 1787437940 | 27.22° C | 79% | 1010.2 hPa | 0 mm | - | 67 W/m² | - |
| 1787437635 | 27.78° C | 77% | 1010.1 hPa | 0 mm | - | 84 W/m² | - |
| 1787437332 | 27.78° C | 76% | 1010.2 hPa | 0 mm | - | 205 W/m² | - |
| 1787437028 | 27.22° C | 78% | 1010.1 hPa | 0 mm | - | 206 W/m² | - |
| 1787436724 | 27.22° C | 78% | 1010.1 hPa | 0 mm | - | 224 W/m² | - |
| 1787436420 | 27.22° C | 77% | 1009.9 hPa | 0 mm | - | 251 W/m² | - |
| 1787436119 | 27.22° C | 79% | 1009.8 hPa | 0 mm | - | 141 W/m² | - |
| 1787435814 | 27.22° C | 79% | 1009.8 hPa | 0 mm | - | 108 W/m² | - |
| 1787435510 | 27.22° C | 78% | 1009.7 hPa | 0 mm | - | 111 W/m² | - |
| 1787435207 | 27.22° C | 79% | 1009.5 hPa | 0 mm | - | 110 W/m² | - |
| 1787434903 | 27.22° C | 81% | 1009.7 hPa | 0 mm | - | 101 W/m² | - |
| 1787434599 | 27.22° C | 78% | 1009.8 hPa | 0 mm | - | 92 W/m² | - |
| 1787434295 | 27.22° C | 79% | 1009.7 hPa | 0 mm | - | 97 W/m² | - |
* Rain latest hour (hover to see other rain measurements)
** Current wind speed in m/s (hover to see current wind gust speed)